| time (UTC) | temp F | wind direction | speed knots | gust knots | rain 1hr in | rain 24hr in | rain mn in | humidity % | barometer mb |
| 20260503200100 | 67 | 225 | 4.3 | 7.0 | 0.00 | 0.00 | 0.00 | 41 | 1013.0 |
| 20260503195058 | 68 | 188 | 1.7 | 10.4 | 0.00 | 0.00 | 0.00 | 41 | 1013.0 |
| 20260503194059 | 67 | 184 | 0.9 | 11.3 | 0.00 | 0.00 | 0.00 | 41 | 1013.0 |
| 20260503192059 | 68 | 134 | 1.7 | 10.4 | 0.00 | 0.00 | 0.00 | 41 | 1013.0 |
| 20260503191059 | 66 | 183 | 4.3 | 12.2 | 0.00 | 0.00 | 0.00 | 41 | 1013.0 |
| 20260503185058 | 67 | 194 | 2.6 | 10.4 | 0.00 | 0.00 | 0.00 | 41 | 1013.0 |
| 20260503183059 | 66 | 216 | 2.6 | 8.7 | 0.00 | 0.00 | 0.00 | 41 | 1013.0 |
| 20260503182058 | 65 | 199 | 2.6 | 10.4 | 0.00 | 0.00 | 0.00 | 41 | 1013.0 |
| 20260503181059 | 65 | 215 | 5.2 | 10.4 | 0.00 | 0.00 | 0.00 | 41 | 1013.0 |
| 20260503180100 | 65 | 158 | 1.7 | 6.1 | 0.00 | 0.00 | 0.00 | 41 | 1013.0 |
| 20260503175058 | 64 | 303 | 2.6 | 6.1 | 0.00 | 0.00 | 0.00 | 41 | 1013.0 |
| 20260503173059 | 63 | 297 | 2.6 | 8.7 | 0.00 | 0.00 | 0.00 | 41 | 1013.0 |
| 20260503172058 | 63 | 176 | 0.9 | 6.1 | 0.00 | 0.00 | 0.00 | 41 | 1013.0 |
| 20260503171058 | 62 | 204 | 2.6 | 8.7 | 0.00 | 0.00 | 0.00 | 41 | 1013.0 |
| 20260503131059 | 50 | 60 | 0.9 | 2.6 | 0.00 | 0.00 | 0.00 | 41 | 1013.0 |
| 20260503072100 | 49 | 334 | 0.0 | 0.0 | 0.00 | 0.00 | 0.00 | 41 | 1013.0 |
| 20260503071059 | 49 | 334 | 0.0 | 0.0 | 0.00 | 0.00 | 0.00 | 41 | 1013.0 |
| 20260503055100 | 52 | 334 | 0.0 | 0.0 | 0.00 | 0.00 | 0.00 | 41 | 1013.0 |
| 20260503054059 | 53 | 334 | 0.0 | 0.0 | 0.00 | 0.00 | 0.00 | 41 | 1013.0 |
| 20260503052100 | 53 | 334 | 0.0 | 0.0 | 0.00 | 0.00 | 0.00 | 41 | 1013.0 |
| 20260503051059 | 54 | 334 | 0.0 | 0.0 | 0.00 | 0.00 | 0.00 | 41 | 1013.0 |
| 20260503050101 | 54 | 334 | 0.0 | 0.0 | 0.00 | 0.00 | 0.00 | 41 | 1013.0 |
| 20260503045059 | 54 | 335 | 0.0 | 0.0 | 0.00 | 0.00 | 0.00 | 41 | 1013.0 |
| 20260503044059 | 54 | 334 | 0.0 | 0.0 | 0.00 | 0.00 | 0.00 | 41 | 1013.0 |
| 20260503043059 | 55 | 334 | 0.0 | 0.0 | 0.00 | 0.00 | 0.00 | 41 | 1013.0 |
| 20260503042059 | 55 | 334 | 0.0 | 1.7 | 0.00 | 0.00 | 0.00 | 41 | 1013.0 |
| 20260503035059 | 55 | 335 | 0.9 | 5.2 | 0.00 | 0.00 | 0.00 | 41 | 1013.0 |
| 20260503033059 | 55 | 333 | 0.9 | 2.6 | 0.00 | 0.00 | 0.00 | 41 | 1013.0 |
| 20260503032100 | 55 | 334 | 0.9 | 2.6 | 0.00 | 0.00 | 0.00 | 41 | 1013.0 |
| 20260503031059 | 55 | 333 | 0.0 | 2.6 | 0.00 | 0.00 | 0.00 | 41 | 1013.0 |
| 20260503024059 | 56 | 336 | 0.0 | 0.9 | 0.00 | 0.00 | 0.00 | 41 | 1013.0 |
| 20260503023100 | 56 | 336 | 0.0 | 1.7 | 0.00 | 0.00 | 0.00 | 41 | 1013.0 |
| 20260503020101 | 56 | 336 | 0.0 | 1.7 | 0.00 | 0.00 | 0.00 | 41 | 1013.0 |
| 20260503015100 | 56 | 336 | 0.0 | 1.7 | 0.00 | 0.00 | 0.00 | 41 | 1013.0 |
| 20260503014100 | 56 | 336 | 0.0 | 1.7 | 0.00 | 0.00 | 0.00 | 41 | 1013.0 |
| 20260503013100 | 57 | 336 | 0.9 | 2.6 | 0.00 | 0.00 | 0.00 | 41 | 1013.0 |
| 20260503012100 | 57 | 336 | 1.7 | 2.6 | 0.00 | 0.00 | 0.00 | 41 | 1013.0 |
| 20260503011059 | 57 | 336 | 0.9 | 2.6 | 0.00 | 0.00 | 0.00 | 41 | 1013.0 |
| 20260503004100 | 59 | 343 | 0.9 | 2.6 | 0.00 | 0.00 | 0.00 | 41 | 1013.0 |
| 20260503003059 | 60 | 344 | 0.9 | 4.3 | 0.00 | 0.00 | 0.00 | 41 | 1013.0 |
| 20260503002059 | 60 | 339 | 1.7 | 5.2 | 0.00 | 0.00 | 0.00 | 41 | 1013.0 |
| 20260503001100 | 61 | 348 | 0.9 | 4.3 | 0.00 | 0.00 | 0.00 | 41 | 1013.0 |
| 20260502235059 | 61 | 340 | 0.9 | 6.1 | 0.00 | 0.00 | 0.00 | 41 | 1013.0 |
| 20260502234100 | 62 | 357 | 1.7 | 4.3 | 0.00 | 0.00 | 0.00 | 41 | 1013.0 |
| 20260502233059 | 62 | 347 | 1.7 | 10.4 | 0.00 | 0.00 | 0.00 | 41 | 1013.0 |
| 20260502232059 | 63 | 313 | 3.5 | 7.8 | 0.00 | 0.00 | 0.00 | 41 | 1013.0 |
| 20260502231100 | 64 | 27 | 2.6 | 13.9 | 0.00 | 0.00 | 0.00 | 41 | 1013.0 |
| 20260502225100 | 65 | 336 | 1.7 | 6.1 | 0.00 | 0.00 | 0.00 | 41 | 1013.0 |
| 20260502224100 | 65 | 12 | 1.7 | 6.1 | 0.00 | 0.00 | 0.00 | 41 | 1013.0 |
| 20260502223100 | 65 | 2 | 1.7 | 7.8 | 0.00 | 0.00 | 0.00 | 41 | 1013.0 |
| 20260502222059 | 65 | 355 | 3.5 | 7.8 | 0.00 | 0.00 | 0.00 | 41 | 1013.0 |
| 20260502221059 | 65 | 339 | 4.3 | 10.4 | 0.00 | 0.00 | 0.00 | 41 | 1013.0 |
| 20260502215100 | 65 | 9 | 3.5 | 10.4 | 0.00 | 0.00 | 0.00 | 41 | 1013.0 |
| 20260502214059 | 66 | 245 | 2.6 | 7.8 | 0.00 | 0.00 | 0.00 | 41 | 1013.0 |
| 20260502211059 | 66 | 354 | 4.3 | 10.4 | 0.00 | 0.00 | 0.00 | 41 | 1013.0 |
| 20260502210101 | 67 | 354 | 2.6 | 7.8 | 0.00 | 0.00 | 0.00 | 41 | 1013.0 |
| 20260502205100 | 67 | 294 | 1.7 | 5.2 | 0.00 | 0.00 | 0.00 | 41 | 1013.0 |
| 20260502204059 | 68 | 336 | 3.5 | 10.4 | 0.00 | 0.00 | 0.00 | 41 | 1013.0 |
| 20260502203059 | 68 | 21 | 1.7 | 10.4 | 0.00 | 0.00 | 0.00 | 41 | 1013.0 |
| 20260502202100 | 67 | 343 | 3.5 | 8.7 | 0.00 | 0.00 | 0.00 | 41 | 1013.0 |
| 20260502201100 | 67 | 268 | 2.6 | 8.7 | 0.00 | 0.00 | 0.00 | 41 | 1013.0 |